FW7792 Weather Reports


time (UTC)temp
F
wind
direction
speed
knots
gust
knots
rain 1hr
in
rain 24hr
in
rain mn
in
humidity
%
barometer
mb
20260507180529 85 279 6.1 13.0 0.00 0.00 0.00 52 1002.1
20260507180044 85 303 5.2 15.6 0.00 0.00 0.00 52 1002.2
20260507175527 86 295 6.1 17.4 0.00 0.00 0.00 51 1002.2
20260507175030 86 290 7.0 17.4 0.00 0.00 0.00 51 1002.1
20260507174547 86 304 8.7 20.9 0.00 0.00 0.00 49 1002.2
20260507174028 86 340 11.3 20.9 0.00 0.00 0.00 49 1002.1
20260507173532 86 336 11.3 19.1 0.00 0.00 0.00 48 1002.2
20260507173043 86 304 7.8 17.4 0.00 0.00 0.00 52 1002.2
20260507172527 86 265 7.0 16.5 0.00 0.00 0.00 51 1002.4
20260507172027 86 323 5.2 13.0 0.00 0.00 0.00 52 1002.4
20260507171538 86 326 6.1 13.9 0.00 0.00 0.00 53 1002.5
20260507171028 86 321 7.0 13.9 0.00 0.00 0.00 52 1002.5
20260507170528 86 342 7.0 15.6 0.00 0.00 0.00 52 1002.4
20260507170043 86 300 7.0 15.6 0.00 0.00 0.00 53 1002.4
20260507165530 86 296 7.8 15.6 0.00 0.00 0.00 51 1002.4
20260507165029 86 345 7.0 14.8 0.00 0.00 0.00 54 1002.5
20260507164536 86 328 5.2 17.4 0.00 0.00 0.00 55 1002.5
20260507164028 86 308 7.8 17.4 0.00 0.00 0.00 56 1002.6
20260507163529 86 339 6.1 17.4 0.00 0.00 0.00 56 1002.8
20260507163034 86 326 7.0 14.8 0.00 0.00 0.00 57 1003.0
20260507162528 85 327 5.2 14.8 0.00 0.00 0.00 57 1003.0
20260507162028 85 330 7.0 15.6 0.00 0.00 0.00 57 1003.2
20260507161545 85 335 7.8 20.0 0.00 0.00 0.00 57 1003.2
20260507161030 85 325 7.0 20.9 0.00 0.00 0.00 56 1003.4
20260507160611 86 352 10.4 20.9 0.00 0.00 0.00 54 1003.4
20260507160036 87 328 9.6 19.1 0.00 0.00 0.00 53 1003.2
20260507155530 87 18 5.2 18.2 0.00 0.00 0.00 57 1003.8
20260507155028 86 312 8.7 20.0 0.00 0.00 0.00 55 1003.8
20260507154535 86 309 11.3 20.0 0.00 0.00 0.00 55 1003.6
20260507154027 85 317 7.0 20.9 0.00 0.00 0.00 58 1003.8
20260507153527 84 296 7.8 20.9 0.00 0.00 0.00 58 1003.9
20260507153043 85 6 9.6 19.1 0.00 0.00 0.00 58 1004.0
20260507152527 84 337 7.8 19.1 0.00 0.00 0.00 60 1004.2
20260507152027 84 300 6.1 15.6 0.00 0.00 0.00 62 1004.3
20260507151543 82 336 8.7 17.4 0.00 0.00 0.00 62 1004.2
20260507151027 83 324 7.8 18.2 0.00 0.00 0.00 61 1004.7
20260507150527 83 346 7.0 18.2 0.00 0.00 0.00 61 1004.9
20260507150041 83 4 7.8 18.2 0.00 0.00 0.00 61 1004.7
20260507145528 84 298 7.0 17.4 0.00 0.00 0.00 63 1005.0
20260507145028 84 318 9.6 20.0 0.00 0.00 0.00 62 1005.0
20260507144539 84 336 8.7 20.0 0.00 0.00 0.00 62 1005.1
20260507144028 84 358 10.4 20.0 0.00 0.00 0.00 62 1005.2
20260507143530 83 12 10.4 20.0 0.00 0.00 0.00 62 1005.1
20260507143045 83 324 8.7 21.7 0.00 0.00 0.00 61 1005.4
20260507142527 83 331 10.4 22.6 0.00 0.00 0.00 62 1005.5
20260507142027 83 355 10.4 22.6 0.00 0.00 0.00 63 1005.5
20260507141541 83 356 11.3 20.0 0.00 0.00 0.00 62 1005.8
20260507141027 83 346 11.3 20.0 0.00 0.00 0.00 63 1005.9
20260507140528 83 324 11.3 20.9 0.00 0.00 0.00 62 1006.2
20260507140045 83 328 10.4 20.9 0.00 0.00 0.00 63 1006.2
20260507135531 82 355 8.7 18.2 0.00 0.00 0.00 65 1006.4
20260507135028 82 347 7.8 20.0 0.00 0.00 0.00 65 1006.5
20260507134542 82 10 9.6 20.0 0.00 0.00 0.00 63 1006.8
20260507134211 82 335 8.7 19.1 0.00 0.00 0.00 64 1006.7
20260507133528 82 3 8.7 19.1 0.00 0.00 0.00 65 1007.2
20260507133045 82 349 9.6 20.0 0.00 0.00 0.00 65 1007.3
20260507132527 82 311 9.6 20.0 0.00 0.00 0.00 65 1007.5
20260507132027 81 345 7.8 20.9 0.00 0.00 0.00 67 1007.6
20260507131555 81 357 8.7 20.9 0.00 0.00 0.00 66 1007.7
20260507131028 80 339 7.8 14.8 0.00 0.00 0.00 68 1007.9
20260507130529 80 11 7.0 15.6 0.00 0.00 0.00 68 1008.0
20260507130055 80 332 7.8 15.6 0.00 0.00 0.00 68 1008.1
20260507125528 80 349 5.2 13.9 0.00 0.00 0.00 70 1008.1
20260507125028 80 337 6.1 17.4 0.00 0.00 0.00 69 1008.1
20260507124547 80 322 6.1 17.4 0.00 0.00 0.00 69 1008.3
20260507124028 80 314 6.1 13.0 0.00 0.00 0.00 69 1008.1
20260507123528 80 322 6.1 12.2 0.00 0.00 0.00 69 1008.2
20260507123035 79 353 4.3 12.2 0.00 0.00 0.00 71 1008.3
20260507122523 79 338 4.3 13.0 0.00 0.00 0.00 69 1008.2
20260507122024 79 320 6.1 13.0 0.00 0.00 0.00 69 1008.1
20260507121535 79 320 6.1 13.9 0.00 0.00 0.00 69 1008.2
20260507121027 79 306 5.2 13.9 0.00 0.00 0.00 69 1008.3
20260507120523 79 335 5.2 13.0 0.00 0.00 0.00 69 1008.3
20260507120041 79 348 4.3 13.0 0.00 0.00 0.00 69 1008.5
20260507115523 79 322 4.3 13.0 0.00 0.00 0.00 70 1008.4
20260507115023 78 321 4.3 13.0 0.00 0.00 0.00 70 1008.4
20260507114548 78 318 3.5 10.4 0.00 0.00 0.00 70 1008.5
20260507114026 78 333 4.3 10.4 0.00 0.00 0.00 71 1008.7
20260507113524 78 316 3.5 9.6 0.00 0.00 0.00 71 1008.6
20260507113039 78 342 3.5 9.6 0.00 0.00 0.00 72 1008.5
20260507112524 78 348 4.3 13.0 0.00 0.00 0.00 71 1008.3
20260507112024 78 347 4.3 13.0 0.00 0.00 0.00 71 1008.3
20260507111535 79 349 3.5 9.6 0.00 0.00 0.00 71 1008.4
20260507111023 79 338 3.5 8.7 0.00 0.00 0.00 71 1008.1
20260507110523 78 6 3.5 8.7 0.00 0.00 0.00 71 1008.1
20260507110044 78 22 3.5 7.8 0.00 0.00 0.00 72 1008.0
20260507105524 78 31 3.5 7.8 0.00 0.00 0.00 72 1007.9
20260507105023 78 6 3.5 9.6 0.00 0.00 0.00 72 1007.8
20260507104544 77 17 2.6 9.6 0.00 0.00 0.00 73 1007.9
20260507104027 77 3 2.6 10.4 0.00 0.00 0.00 74 1008.1
20260507103527 76 357 1.7 11.3 0.00 0.00 0.00 76 1008.1
20260507103043 75 12 3.5 11.3 0.00 0.00 0.00 76 1008.1
20260507102523 74 20 1.7 4.3 0.00 0.00 0.00 78 1008.1
20260507102027 74 16 0.9 2.6 0.00 0.00 0.00 78 1008.0
20260507101538 74 46 0.9 3.5 0.00 0.00 0.00 78 1008.0
20260507101023 74 46 0.9 3.5 0.00 0.00 0.00 78 1008.0
20260507100611 74 41 0.0 2.6 0.00 0.00 0.00 77 1008.0
20260507100040 75 41 0.0 2.6 0.00 0.00 0.00 76 1008.1
20260507095527 75 41 0.0 2.6 0.00 0.00 0.00 76 1008.1
20260507095024 75 0 0.9 3.5 0.00 0.00 0.00 76 1008.2
20260507094539 75 18 0.9 4.3 0.00 0.00 0.00 76 1008.2
20260507094024 75 25 1.7 4.3 0.00 0.00 0.00 76 1008.0
20260507093523 75 29 1.7 5.2 0.00 0.00 0.00 76 1008.0
20260507093035 75 26 1.7 5.2 0.00 0.00 0.00 75 1007.9
20260507092523 76 29 1.7 5.2 0.00 0.00 0.00 75 1007.9
20260507092024 76 35 2.6 5.2 0.00 0.00 0.00 75 1007.9
20260507091544 76 33 2.6 7.0 0.00 0.00 0.00 75 1008.0
20260507091024 76 32 2.6 7.0 0.00 0.00 0.00 75 1007.9
20260507090524 76 35 2.6 5.2 0.00 0.00 0.00 75 1007.8
20260507090040 76 33 2.6 7.0 0.00 0.00 0.00 75 1007.9
20260507085524 76 18 3.5 7.0 0.00 0.00 0.00 75 1007.8
20260507085024 76 52 3.5 7.0 0.00 0.00 0.00 75 1007.8
20260507084538 76 21 3.5 7.0 0.00 0.00 0.00 75 1007.8
20260507084023 76 39 3.5 8.7 0.00 0.00 0.00 74 1007.8
20260507083523 76 32 3.5 8.7 0.00 0.00 0.00 74 1007.8
20260507083036 76 23 4.3 7.8 0.00 0.00 0.00 74 1007.7
20260507082523 76 25 4.3 7.8 0.00 0.00 0.00 75 1007.9
20260507082023 76 31 4.3 7.8 0.00 0.00 0.00 75 1007.9
20260507081543 76 33 3.5 8.7 0.00 0.00 0.00 74 1007.8
20260507081023 76 20 3.5 8.7 0.00 0.00 0.00 74 1008.1
20260507080527 76 5 5.2 9.6 0.00 0.00 0.00 74 1008.3
20260507080040 76 360 3.5 9.6 0.00 0.00 0.00 74 1008.3
20260507075529 76 20 3.5 8.7 0.00 0.00 0.00 74 1008.3
20260507075023 75 353 3.5 8.7 0.00 0.00 0.00 75 1008.3
20260507074553 75 29 4.3 9.6 0.00 0.00 0.00 75 1008.6
20260507074209 75 358 3.5 9.6 0.00 0.00 0.00 75 1008.6
20260507073526 75 1 3.5 7.8 0.00 0.00 0.00 75 1008.6
20260507073037 75 353 3.5 7.8 0.00 0.00 0.00 75 1008.7
20260507072526 75 11 2.6 7.0 0.00 0.00 0.00 75 1008.7
20260507072023 75 25 3.5 7.8 0.00 0.00 0.00 75 1008.7
20260507071536 75 15 3.5 7.8 0.00 0.00 0.00 75 1008.8
20260507071023 75 18 3.5 7.8 0.00 0.00 0.00 76 1008.8
20260507070526 75 11 3.5 7.8 0.00 0.00 0.00 76 1008.9
20260507070035 75 352 3.5 7.8 0.00 0.00 0.00 76 1008.8
20260507065529 74 346 2.6 6.1 0.00 0.00 0.00 76 1008.8
20260507065024 75 359 1.7 6.1 0.00 0.00 0.00 76 1009.0
20260507064542 75 2 1.7 6.1 0.00 0.00 0.00 76 1009.0
20260507064023 75 5 2.6 7.0 0.00 0.00 0.00 75 1009.0
20260507063527 75 356 2.6 7.0 0.00 0.00 0.00 75 1009.1
20260507063035 75 17 3.5 6.1 0.00 0.00 0.00 75 1009.2
20260507062522 75 352 2.6 6.1 0.00 0.00 0.00 75 1009.3
20260507062027 75 358 2.6 6.1 0.00 0.00 0.00 76 1009.4
20260507061536 75 353 1.7 6.1 0.00 0.00 0.00 76 1009.6
20260507061024 75 342 2.6 6.1 0.00 0.00 0.00 76 1009.6
20260507060523 75 355 1.7 5.2 0.00 0.00 0.00 76 1009.6
20260507060036 75 338 2.6 7.0 0.00 0.00 0.00 76 1009.7
20260507055527 75 2 2.6 7.0 0.00 0.00 0.00 76 1009.6
20260507055027 76 360 2.6 7.8 0.00 0.00 0.00 75 1009.7
20260507054538 76 21 3.5 7.8 0.00 0.00 0.00 75 1009.7
20260507054024 76 2 2.6 7.8 0.00 0.00 0.00 75 1009.7
20260507053525 76 8 2.6 7.8 0.00 0.00 0.00 75 1009.9
20260507053049 76 17 3.5 7.8 0.00 0.00 0.00 75 1009.9
20260507052524 76 14 3.5 7.8 0.00 0.00 0.00 75 1010.0
20260507052027 76 1 3.5 9.6 0.00 0.00 0.00 75 1010.1
20260507051537 76 3 3.5 9.6 0.00 0.00 0.00 75 1010.2
20260507051026 76 8 2.6 7.0 0.00 0.00 0.00 75 1010.2
20260507050523 76 8 3.5 7.0 0.00 0.00 0.00 75 1010.3
20260507050036 76 358 3.5 6.1 0.00 0.00 0.00 75 1010.4
20260507045528 76 12 2.6 6.1 0.00 0.00 0.00 75 1010.5
20260507045023 76 8 2.6 6.1 0.00 0.00 0.00 75 1010.6
20260507044539 76 21 2.6 6.1 0.00 0.00 0.00 74 1010.7
20260507044026 76 11 3.5 7.8 0.00 0.00 0.00 74 1010.7
20260507043523 76 14 3.5 7.8 0.00 0.00 0.00 74 1010.9
20260507043035 76 15 3.5 7.8 0.00 0.00 0.00 74 1010.9
20260507042527 77 33 3.5 7.8 0.00 0.00 0.00 73 1011.0
20260507042024 77 14 3.5 7.8 0.00 0.00 0.00 73 1011.0
20260507041541 77 22 3.5 7.8 0.00 0.00 0.00 73 1011.1
20260507041023 77 17 4.3 8.7 0.00 0.00 0.00 73 1011.2
20260507040610 77 16 3.5 8.7 0.00 0.00 0.00 73 1011.2
20260507040039 77 24 5.2 9.6 0.00 0.00 0.00 73 1011.2
20260507035528 77 26 4.3 9.6 0.00 0.00 0.00 73 1011.2
20260507035024 77 28 4.3 9.6 0.00 0.00 0.00 73 1011.3
20260507034536 77 31 4.3 8.7 0.00 0.00 0.00 73 1011.4
20260507034028 77 12 4.3 8.7 0.00 0.00 0.00 73 1011.4
20260507033527 77 359 4.3 9.6 0.00 0.00 0.00 73 1011.5
20260507033037 77 14 4.3 9.6 0.00 0.00 0.00 72 1011.4
20260507032523 77 20 4.3 11.3 0.00 0.00 0.00 72 1011.5
20260507032025 77 29 4.3 11.3 0.00 0.00 0.00 72 1011.6
20260507031539 77 7 5.2 9.6 0.00 0.00 0.00 72 1011.8
20260507031029 77 24 4.3 9.6 0.00 0.00 0.00 72 1011.6
20260507030524 77 13 3.5 8.7 0.00 0.00 0.00 72 1011.7
20260507030047 77 16 4.3 8.7 0.00 0.00 0.00 72 1011.8
20260507025526 77 6 3.5 8.7 0.00 0.00 0.00 72 1011.9
20260507025023 77 21 3.5 8.7 0.00 0.00 0.00 72 1012.1
20260507024545 77 17 3.5 7.8 0.00 0.00 0.00 72 1012.1
20260507024025 77 14 2.6 7.0 0.00 0.00 0.00 72 1012.2
20260507023526 77 6 2.6 7.0 0.00 0.00 0.00 72 1012.1
20260507023036 77 13 3.5 8.7 0.00 0.00 0.00 72 1012.1
20260507022525 78 8 4.3 8.7 0.00 0.00 0.00 71 1012.1
20260507022030 78 12 3.5 7.0 0.00 0.00 0.00 71 1012.2
20260507021536 78 15 3.5 8.7 0.00 0.00 0.00 71 1012.2
20260507021027 78 360 3.5 8.7 0.00 0.00 0.00 71 1012.2
20260507020527 78 19 3.5 7.8 0.00 0.00 0.00 71 1012.3
20260507020035 78 22 3.5 7.8 0.00 0.00 0.00 71 1012.2
20260507015530 78 8 3.5 7.8 0.00 0.00 0.00 72 1012.3
20260507015027 77 18 2.6 7.8 0.00 0.00 0.00 72 1012.3
20260507014548 77 8 3.5 7.8 0.00 0.00 0.00 73 1012.4
20260507014206 77 7 2.6 6.1 0.00 0.00 0.00 73 1012.5
20260507013526 77 14 2.6 6.1 0.00 0.00 0.00 73 1012.6
20260507013035 77 17 2.6 6.1 0.00 0.00 0.00 74 1012.8
20260507012527 77 16 2.6 5.2 0.00 0.00 0.00 75 1012.7
20260507012031 77 14 2.6 6.1 0.00 0.00 0.00 75 1012.7
20260507011535 76 15 2.6 6.1 0.00 0.00 0.00 75 1012.8
20260507011026 77 14 3.5 6.1 0.00 0.00 0.00 75 1012.8
20260507010523 77 18 2.6 5.2 0.00 0.00 0.00 75 1012.7
20260507010038 77 44 2.6 5.2 0.00 0.00 0.00 75 1012.7
20260507005524 77 31 1.7 5.2 0.00 0.00 0.00 75 1012.8
20260507005023 77 36 2.6 5.2 0.00 0.00 0.00 75 1012.8
20260507004536 77 29 2.6 5.2 0.00 0.00 0.00 75 1012.7
20260507004027 76 22 2.6 4.3 0.00 0.00 0.00 76 1012.8
20260507003527 77 28 1.7 4.3 0.00 0.00 0.00 76 1012.9
20260507003105 77 25 1.7 3.5 0.00 0.00 0.00 76 1013.0
20260506234028 79 11 2.6 6.1 0.00 0.00 0.00 72 1013.0
20260506233528 79 12 2.6 6.1 0.00 0.00 0.00 72 1013.1
20260506233039 79 32 2.6 7.0 0.00 0.00 0.00 72 1013.0
20260506232527 79 353 2.6 7.0 0.00 0.00 0.00 72 1013.0
20260506232029 79 15 3.5 7.0 0.00 0.00 0.00 72 1013.0
20260506231544 79 8 2.6 7.0 0.00 0.00 0.00 72 1013.1
20260506231030 79 24 2.6 5.2 0.00 0.00 0.00 72 1013.1
20260506230527 80 30 2.6 5.2 0.00 0.00 0.00 73 1013.0
20260506230046 80 29 2.6 5.2 0.00 0.00 0.00 73 1013.0
20260506225531 80 26 1.7 5.2 0.00 0.00 0.00 73 1013.0
20260506225028 80 36 2.6 5.2 0.00 0.00 0.00 73 1013.1
20260506224541 80 39 2.6 5.2 0.00 0.00 0.00 73 1013.1
20260506224032 81 37 1.7 6.1 0.00 0.00 0.00 73 1013.1
20260506223527 81 31 2.6 6.1 0.00 0.00 0.00 73 1013.1
20260506223043 81 47 2.6 6.1 0.00 0.00 0.00 72 1013.1
20260506222528 82 54 2.6 6.1 0.00 0.00 0.00 71 1013.2
20260506222027 82 43 2.6 5.2 0.00 0.00 0.00 70 1013.1
20260506221543 82 51 2.6 5.2 0.00 0.00 0.00 70 1013.2
20260506221031 82 42 2.6 4.3 0.00 0.00 0.00 70 1013.2
20260506220611 82 0 0.0 0.0 0.00 0.00 0.00 70 1013.3
20260506220041 82 0 0.0 0.0 0.00 0.00 0.00 70 1013.2
20260506215527 83 0 0.0 0.0 0.00 0.00 0.00 70 1013.2
20260506215030 83 0 0.0 0.0 0.00 0.00 0.00 70 1013.2
20260506214536 83 0 0.0 0.0 0.00 0.00 0.00 70 1013.2
20260506214028 83 0 0.0 0.0 0.00 0.00 0.00 69 1013.1
20260506213528 83 0 0.0 0.0 0.00 0.00 0.00 69 1013.0
20260506213051 84 0 0.0 0.0 0.00 0.00 0.00 69 1013.1
20260506212528 84 0 0.0 0.0 0.00 0.00 0.00 68 1013.2
20260506212028 84 0 0.0 0.0 0.00 0.00 0.00 68 1013.2
20260506211543 84 0 0.0 0.0 0.00 0.00 0.00 68 1013.1
20260506211029 84 0 0.0 1.7 0.00 0.00 0.00 67 1013.1
20260506210528 84 0 0.0 1.7 0.00 0.00 0.00 67 1013.1
20260506210050 84 0 0.0 1.7 0.00 0.00 0.00 67 1013.2
20260506205530 85 29 0.9 1.7 0.00 0.00 0.00 66 1013.3
20260506205030 85 10 0.9 2.6 0.00 0.00 0.00 66 1013.5
20260506204543 85 0 0.9 2.6 0.00 0.00 0.00 65 1013.4
20260506204031 86 358 0.0 2.6 0.00 0.00 0.00 64 1013.2
20260506203527 86 0 0.0 0.0 0.00 0.00 0.00 64 1013.2
20260506203037 87 0 0.0 0.0 0.00 0.00 0.00 63 1013.1
20260506202528 87 0 0.0 0.0 0.00 0.00 0.00 62 1013.2
20260506202028 87 0 0.0 0.0 0.00 0.00 0.00 62 1013.3
20260506201544 88 0 0.0 0.0 0.00 0.00 0.00 61 1013.4
20260506201028 88 0 0.0 0.0 0.00 0.00 0.00 61 1013.3
20260506200531 89 0 0.0 0.0 0.00 0.00 0.00 61 1013.4
20260506200043 89 0 0.0 0.0 0.00 0.00 0.00 62 1013.5
20260506195528 89 0 0.0 0.0 0.00 0.00 0.00 65 1013.5
20260506195028 89 0 0.0 2.6 0.00 0.00 0.00 63 1013.4
20260506194538 88 0 0.0 2.6 0.00 0.00 0.00 63 1013.4
20260506194211 88 314 0.0 2.6 0.00 0.00 0.00 62 1013.5
20260506193527 88 0 0.0 0.9 0.00 0.00 0.00 65 1013.4
20260506193035 87 333 0.0 0.9 0.00 0.00 0.00 65 1013.4
20260506192531 87 0 0.0 0.9 0.00 0.00 0.00 64 1013.6
20260506192027 87 0 0.0 2.6 0.00 0.00 0.00 63 1013.5
20260506191544 88 0 0.0 2.6 0.00 0.00 0.00 62 1013.5
20260506191028 88 333 0.0 2.6 0.00 0.00 0.00 61 1013.5
20260506190527 89 0 0.0 2.6 0.00 0.00 0.00 61 1013.5
20260506190043 89 0 0.0 2.6 0.00 0.00 0.00 63 1013.5
20260506185527 88 324 0.9 3.5 0.00 0.00 0.00 63 1013.5
20260506185028 88 0 0.9 3.5 0.00 0.00 0.00 62 1013.5
20260506184541 88 324 0.9 4.3 0.00 0.00 0.00 62 1013.5
20260506184030 88 347 0.0 6.1 0.00 0.00 0.00 63 1013.5
20260506183528 88 335 1.7 6.1 0.00 0.00 0.00 61 1013.5
20260506183036 88 341 2.6 6.1 0.00 0.00 0.00 61 1013.4
20260506182527 88 330 2.6 6.1 0.00 0.00 0.00 62 1013.7
20260506182027 88 312 1.7 7.0 0.00 0.00 0.00 62 1013.6
20260506181537 88 318 2.6 7.0 0.00 0.00 0.00 62 1013.8
20260506181028 88 322 1.7 6.1 0.00 0.00 0.00 63 1013.8